Regional Weather Roundup
Issued by NWS

Home | Current Version | Previous Version | Text Only | Print | Product List | Glossary On
Versions: 1 2 3 4 5 6 7 8 9 10 11 12 13 14 15 16 17 18 19 20 21 22 23 24 25 26 27 28 29 30 31 32 33 34 35 36 37 38 39 40 41 42 43 44 45 46 47 48 49 50
000
ASUS43 KMKX 200200
RWRWI

WISCONSIN REGIONAL WEATHER ROUNDUP
NATIONAL WEATHER SERVICE MILWAUKEE/SULLIVAN WI
800 PM CST SUN FEB 19 2017

NOTE: "FAIR" INDICATES FEW OR NO CLOUDS BELOW 12,000 FEET WITH NO
SIGNIFICANT WEATHER AND/OR OBSTRUCTIONS TO VISIBILITY.

WIZ001-002-006>008-014>016-023>028-200300-
NORTHWEST WISCONSIN

CITY           SKY/WX    TMP DP  RH WIND       PRES   REMARKS
SUPERIOR ARPT  CLOUDY    35  33  93 E15       29.98S WCI  25
ASHLAND        CLOUDY    34  31  88 NE6       30.00F WCI  29
HAYWARD        CLOUDY    49  29  46 VRB3      29.95F
SIREN          PTCLDY    52  31  44 SE8       29.90F
CUMBERLAND     CLOUDY    46  30  53 SE9       29.93F
RICE LAKE      CLOUDY    48  32  53 CALM      29.95F
CHETEK         CLOUDY    47  33  57 E7        29.95F
LADYSMITH      CLOUDY    46  32  56 E7        30.00S
EAU CLAIRE     NOT AVBL
MENOMONIE      CLOUDY    46  33  60 CALM      29.94F
NEW RICHMOND   PTCLDY    47  35  62 SE5       29.92R
OSCEOLA        PTCLDY    50  36  57 SE9       29.93S
$$

WIZ003>005-009-010-017-018-200300-
NORTH CENTRAL WISCONSIN

CITY           SKY/WX    TMP DP  RH WIND       PRES   REMARKS
MANITOWISH WTR PTCLDY    35  29  79 SE3       30.01S
ARBOR VITAE    CLOUDY    40  29  65 SE5       30.02S
WOODRUFF       CLOUDY    40  29  65 SE5       30.02S
RHINELANDER    CLEAR     46  29  51 SE5       30.04R
EAGLE RIVER    CLOUDY    44  26  49 SE6       30.03R
LAND O LAKES   MOCLDY    42  28  57 E5        30.06R
PHILLIPS       CLOUDY    38  28  67 CALM      30.00R
TOMAHAWK       CLOUDY    41  28  58 CALM      30.03S
MEDFORD        CLOUDY    47  30  51 E7        30.01S
MERRILL        NOT AVBL
$$

WIZ029-030-035-036-043>047-200300-
CENTRAL WISCONSIN

CITY           SKY/WX    TMP DP  RH WIND       PRES   REMARKS
WAUSAU         CLOUDY    46  31  55 E6        30.03R
MOSINEE        NOT AVBL
MARSHFIELD     CLOUDY    47  31  53 SE7       30.01R
STEVENS POINT  PTCLDY    44  33  66 E5        30.04R
WAUPACA        CLOUDY    43  34  70 CALM      30.06R
WAUTOMA        CLOUDY    38  33  82 CALM      30.05R
WISC RAPIDS    CLOUDY    49  33  54 SE6       30.03S
CAMP DOUGLAS   NOT AVBL
$$

WIZ011>013-019>022-031-037>040-048>050-200300-
NORTHEAST WISCONSIN

CITY           SKY/WX    TMP DP  RH WIND       PRES   REMARKS
ANTIGO         CLOUDY    40  31  68 SE9       30.05S WCI  34
SHAWANO        CLEAR     41  33  73 E5        30.08S
OCONTO         PTCLDY    36  30  79 CALM      30.11R
STURGEON BAY   PTCLDY    37  32  82 E7        30.12R WCI  32
GREEN BAY      CLOUDY    39  32  76 SE3       30.10R
MANITOWOC      NOT AVBL
APPLETON       PTCLDY    43  30  61 E6        30.06R
CLINTONVILLE   PTCLDY    43  32  65 E7        30.06S
OSHKOSH        CLOUDY    39  32  76 SE3       30.06S
$$

WIZ032>034-041-042-053>061-200300-
SOUTHWEST WISCONSIN

CITY           SKY/WX    TMP DP  RH WIND       PRES   REMARKS
LA CROSSE      CLOUDY    53  38  56 SE7       29.97R
SPARTA         CLOUDY    43  34  70 CALM      30.00S
VIROQUA        CLOUDY    50  38  64 CALM      29.99R
BOSCOBEL       CLOUDY    55  37  50 CALM      30.00R
PRAIRIE DU CHI PTCLDY    53  35  51 E8        29.98R
PLATTEVILLE    PTCLDY    49  38  67 E9        30.01R
$$

WIZ056-057-062-063-064-067-068-200300-
SOUTH CENTRAL WISCONSIN

CITY           SKY/WX    TMP DP  RH WIND       PRES   REMARKS
REEDSBURG      MOCLDY    52  38  58 CALM      30.01R
BARABOO/DELLS  MOCLDY    52  35  52 SE3       30.02S
LONE ROCK      NOT AVBL
MINERAL POINT  CLOUDY    54  36  50 SE8       30.00S
MADISON        MOCLDY    49  35  58 CALM      30.03R
MIDDLETON      PTCLDY    43  39  86 CALM      30.03R
WATERTOWN      PTCLDY    47  32  56 E8        30.05R
MONROE         CLOUDY    54  37  54 SE7       30.03R
JANESVILLE     CLEAR     48  37  66 SE6       30.04R
$$

WIZ051-052-058>065-066-070>072-200300-
SOUTHEAST WISCONSIN

CITY           SKY/WX    TMP DP  RH WIND       PRES   REMARKS
MILWAUKEE      MOCLDY    41  31  67 SE3       30.09R
WAUKESHA       CLEAR     39  28  65 E7        30.09R WCI  34
MILWAUKEE/TIMM CLEAR     43  30  61 CALM      30.09R
RACINE         CLOUDY    40  31  70 SE3       30.10S
KENOSHA        CLOUDY    37  30  75 E3        30.09R
FOND DU LAC    PTCLDY    43  30  60 SE10      30.07R
SHEBOYGAN      CLOUDY    34  28  79 E3        30.11R
WEST BEND      PTCLDY    37  30  75 NE3       30.09R
JUNEAU         CLOUDY    46  33  61 E9        30.06S
$$

LSZ147-162-200300-
LAKE SUPERIOR

STATION/POSITION TIME  TEMP    WIND        PRES    WAVE
                       AIR SEA DIR/SP/G            HT/PER
                 (UTC) (F)     (DEG/KT/KT) (MB)    (FT/S)
DEVILS ISLAND    0100   35      70/ 11/ 13 1017.5S
PORT WING        0130   34      30/ 11/ 13 1015.9F
SAXON HARBOR     0140   32     200/  2/  3 1015.6S
$$

LMZ867-665-643>646-200300-
LAKE MICHIGAN

STATION/POSITION TIME  TEMP    WIND        PRES    WAVE
                       AIR SEA DIR/SP/G            HT/PER
                 (UTC) (F)     (DEG/KT/KT) (MB)    (FT/S)
CHAMBERS ISLAND  0140   39     110/  6/  8 1019.3R
NORTHPORT PIER   0140   38     150/  5/  7 1020.0S
SISTER BAY       0105   38     130/  9/ 11   N/A
KEWAUNEE LAKESHO 0130   38      CALM  /  3 1019.1R
SHEBOYGAN LAKESH 0100   39      CALM  /  1 1019.6R
PORT WASHINGTON  0140   40      30/  2/  3 1020.3R
MILWAUKEE LAKESH 0130   40        CALM       N/A
KENOSHA   LAKESH 0100   38        CALM     1018.6
$$

TC  - TEMPERATURE IN CELSIUS
VSB - VISIBILITY IN STATUTE MILES
WCI - WIND CHILL INDEX
HX  - HEAT INDEX




USA.gov is the U.S. government's official web portal to all federal, state and local government web resources and services.